AKST,Max TemperatureF,Mean TemperatureF,Min TemperatureF,Max Dew PointF,MeanDew PointF,Min DewpointF,Max Humidity, Mean Humidity, Min Humidity, Max Sea Level PressureIn, Mean Sea Level PressureIn, Min Sea Level PressureIn, Max VisibilityMiles, Mean VisibilityMiles, Min VisibilityMiles, Max Wind SpeedMPH, Mean Wind SpeedMPH, Max Gust SpeedMPH,PrecipitationIn, CloudCover, Events, WindDirDegrees
2013-2-1,17,4,-9,16,3,-22,100,78,49,30.01,29.83,29.60,10,10,4,8,2,16,0.00,3,,7
2013-2-2,24,20,15,19,15,10,100,85,73,29.59,29.44,29.35,10,10,8,6,2,,0.00,7,,58
2013-2-3,21,14,6,18,7,1,92,79,62,29.42,29.34,29.28,10,10,10,8,4,,0.00,2,,9
2013-2-4,17,10,3,14,6,-6,100,83,66,29.53,29.50,29.42,10,10,10,8,4,,0.00,3,,65
2013-2-5,19,10,1,18,12,9,100,84,69,29.63,29.53,29.49,10,8,1,8,4,,0.00,7,,306
2013-2-6,17,14,12,18,12,9,100,86,69,29.73,29.66,29.49,10,7,1,12,3,,0.00,7,,53
2013-2-7,15,12,8,12,8,3,100,82,67,29.48,29.30,29.22,10,9,2,13,5,,0.00,7,,41
2013-2-8,15,12,8,14,8,1,100,87,67,29.58,29.52,29.37,10,8,0,7,4,,0.00,7,,41
2013-2-9,35,22,10,30,23,10,93,80,65,29.48,29.03,28.75,10,9,4,18,7,26,0.00,7,,62
2013-2-10,35,15,-7,30,8,-15,93,81,60,29.67,29.20,28.73,10,6,1,16,9,29,0.00,7,,234
2013-2-11,19,2,-14,14,-1,-20,100,76,21,29.71,29.61,29.55,10,9,0,16,6,16,0.00,4,,118
2013-2-12,28,14,0,23,16,7,86,78,69,29.65,29.59,29.55,10,10,10,14,11,18,0.00,6,,119
2013-2-13,24,16,8,19,6,0,93,82,59,29.71,29.67,29.56,10,5,1,8,5,,0.00,8,,306
2013-2-14,8,-2,-13,7,-5,-24,92,80,59,29.92,29.62,29.47,10,5,1,15,7,21,0.00,6,,262
2013-2-15,1,-13,-27,1,-15,-29,100,60,21,30.13,30.05,29.93,10,6,1,7,1,,0.00,7,,169
2013-2-16,0,-14,-29,-2,-21,-107,100,55,4,30.16,30.05,29.94,10,10,5,9,1,,0.00,0,,7
2013-2-17,-5,-17,-29,-9,-23,-29,100,57,35,30.41,30.21,29.96,10,10,8,18,9,24,0.00,0,,342
2013-2-18,0,-18,-36,-8,-19,-29,100,59,29,30.37,30.16,29.89,10,9,1,7,2,,0.00,0,,63
2013-2-19,1,-19,-38,-2,-18,-29,100,50,25,29.91,29.58,29.32,10,10,3,12,5,17,0.00,3,,22
2013-2-20,3,2,0,-4,-15,-29,85,50,25,29.33,29.28,29.25,10,9,3,10,6,,0.00,5,,13
2013-2-21,3,2,0,3,-4,-9,100,79,53,29.50,29.40,29.34,10,6,2,9,3,,0.00,8,,335
2013-2-22,5,2,-2,1,-6,-26,100,75,30,29.60,29.50,29.28,10,10,4,6,1,,0.00,7,,44
2013-2-23,5,2,-2,3,-7,-24,100,72,32,29.29,29.20,29.15,10,10,2,12,5,16,0.00,8,,6
2013-2-24,6,2,-2,3,-6,-27,100,75,27,29.71,29.55,29.30,10,9,2,8,4,,0.00,7,,334
2013-2-25,6,2,-2,3,-1,-6,100,83,60,29.86,29.77,29.70,10,6,1,14,4,21,0.00,8,,333
2013-2-26,10,6,1,9,0,-11,100,77,40,29.84,29.58,29.37,10,9,2,14,9,18,0.00,3,,358
2013-2-27,12,2,-9,9,-2,-17,100,73,50,29.36,29.30,29.27,10,10,4,6,3,,0.00,1,,46
2013-2-28,17,8,-2,9,2,-13,100,73,40,29.76,29.50,29.31,10,10,3,10,3,,0.00,4,,277